,,,PA_Meas_PMT16A,,PR_Meas_QMR101_102,,RH_Meas_QMH101,,SR_Meas_QMS101,,TA_Meas_QMH101,,GenWind,,GenWind,
date,time,status,PA,status,PR,status,RH,status,SR,status,TA,status,DirAvg,status,SpdAvg,
2010-01-20, 00:00:05,VALID,1006.63,VALID,0,VALID,81.9799,VALID,0,VALID,25.5551,VALID,359,VALID,1.07266,
2010-01-20, 00:01:05,VALID,1006.65,VALID,0,VALID,82.0028,VALID,0,VALID,25.5532,VALID,8,VALID,0.631641,
2010-01-20, 00:02:05,VALID,1006.64,VALID,0,VALID,81.8808,VALID,0,VALID,25.5941,VALID,33,VALID,0,
2010-01-20, 00:03:05,VALID,1006.63,VALID,0,VALID,81.8045,VALID,0,VALID,25.5921,VALID,28,VALID,1.04141,
2010-01-20, 00:04:05,VALID,1006.63,VALID,0,VALID,81.7663,VALID,0,VALID,25.6525,VALID,9,VALID,0.651563,
2010-01-20, 00:05:05,VALID,1006.63,VALID,0,VALID,81.7969,VALID,0,VALID,25.6116,VALID,9,VALID,0.698828,
2010-01-20, 00:06:05,VALID,1006.61,VALID,0,VALID,82.0944,VALID,0,VALID,25.6136,VALID,357,VALID,0.386328,
2010-01-20, 00:07:05,VALID,1006.62,VALID,0,VALID,82.1478,VALID,0,VALID,25.5746,VALID,357,VALID,0.411719,
2010-01-20, 00:08:05,VALID,1006.6,VALID,0,VALID,82.247,VALID,0,VALID,25.5551,VALID,358,VALID,1.00117,
2010-01-20, 00:09:05,VALID,1006.56,VALID,0,VALID,82.2164,VALID,0,VALID,25.5337,VALID,331,VALID,0.597656,
2010-01-20, 00:10:05,VALID,1006.59,VALID,0,VALID,82.9946,VALID,0,VALID,25.5337,VALID,324,VALID,0.475391,
2010-01-20, 00:11:05,VALID,1006.57,VALID,0,VALID,82.8725,VALID,0,VALID,25.4753,VALID,334,VALID,0.6125,
2010-01-20, 00:12:05,VALID,1006.54,VALID,0,VALID,83.1853,VALID,0,VALID,25.4577,VALID,347,VALID,0.488281,
2010-01-20, 00:13:05,VALID,1006.54,VALID,0,VALID,83.7346,VALID,0,VALID,25.3565,VALID,347,VALID,0.241797,
2010-01-20, 00:14:05,VALID,1006.52,VALID,0,VALID,84.2305,VALID,0,VALID,25.3195,VALID,348,VALID,0.301172,
2010-01-20, 00:15:05,VALID,1006.5,VALID,0,VALID,84.7187,VALID,0,VALID,25.2611,VALID,347,VALID,0.384375,
2010-01-20, 00:16:05,VALID,1006.5,VALID,0,VALID,84.9018,VALID,0,VALID,25.2046,VALID,348,VALID,0.263281,
2010-01-20, 00:17:05,VALID,1006.49,VALID,0,VALID,84.8789,VALID,0,VALID,25.1461,VALID,347,VALID,0.180078,
2010-01-20, 00:18:05,VALID,1006.46,VALID,0,VALID,85.4435,VALID,0,VALID,25.1072,VALID,347,VALID,0.345703,
2010-01-20, 00:19:05,VALID,1006.45,VALID,0,VALID,85.7639,VALID,0,VALID,25.0682,VALID,347,VALID,0.467578,
2010-01-20, 00:20:05,VALID,1006.46,VALID,0,VALID,86.42,VALID,0,VALID,24.969,VALID,348,VALID,0.459766,
2010-01-20, 00:21:05,VALID,1006.45,VALID,0,VALID,86.7327,VALID,0,VALID,24.8911,VALID,348,VALID,0.569922,
2010-01-20, 00:22:05,VALID,1006.42,VALID,0,VALID,87.1523,VALID,0,VALID,24.8346,VALID,348,VALID,0.569922,
2010-01-20, 00:23:05,VALID,1006.4,VALID,0,VALID,87.5643,VALID,0,VALID,24.7567,VALID,348,VALID,0.670313,
2010-01-20, 00:24:05,VALID,1006.4,VALID,0,VALID,87.9839,VALID,0,VALID,24.6983,VALID,348,VALID,0.470313,
2010-01-20, 00:25:05,VALID,1006.43,VALID,0,VALID,88.228,VALID,0,VALID,24.6185,VALID,348,VALID,0.460547,
2010-01-20, 00:26:05,VALID,1006.41,VALID,0,VALID,88.4569,VALID,0,VALID,24.5406,VALID,348,VALID,0.528906,
2010-01-20, 00:27:05,VALID,1006.4,VALID,0,VALID,88.7239,VALID,0,VALID,24.4822,VALID,348,VALID,0.466406,
2010-01-20, 00:28:05,VALID,1006.43,VALID,0,VALID,89.113,VALID,0,VALID,24.4841,VALID,348,VALID,0.469922,
2010-01-20, 00:29:05,VALID,1006.45,VALID,0,VALID,89.3189,VALID,0,VALID,24.422,VALID,348,VALID,0.403125,
2010-01-20, 00:30:05,VALID,1006.42,VALID,0,VALID,89.4868,VALID,0,VALID,24.4043,VALID,348,VALID,0.314844,
2010-01-20, 00:31:05,VALID,1006.41,VALID,0,VALID,89.6546,VALID,0,VALID,24.383,VALID,348,VALID,0.216406,
2010-01-20, 00:32:05,VALID,1006.45,VALID,0,VALID,89.7843,VALID,0,VALID,24.3654,VALID,348,VALID,0,
2010-01-20, 00:33:05,VALID,1006.45,VALID,0,VALID,89.9292,VALID,0,VALID,24.3246,VALID,348,VALID,0,
2010-01-20, 00:34:05,VALID,1006.47,VALID,0,VALID,89.9598,VALID,0,VALID,24.3052,VALID,348,VALID,0,
2010-01-20, 00:35:05,VALID,1006.48,VALID,0,VALID,90.1276,VALID,0,VALID,24.3654,VALID,202,VALID,0.721875,
2010-01-20, 00:36:05,VALID,1006.5,VALID,0,VALID,90.3641,VALID,0,VALID,24.3636,VALID,197,VALID,0.872266,
2010-01-20, 00:37:05,VALID,1006.53,VALID,0,VALID,90.509,VALID,0,VALID,24.383,VALID,197,VALID,0.878906,
2010-01-20, 00:38:05,VALID,1006.53,VALID,0,VALID,90.387,VALID,0,VALID,24.3636,VALID,190,VALID,1.08867,
2010-01-20, 00:39:05,VALID,1006.53,VALID,0,VALID,90.1581,VALID,0,VALID,24.383,VALID,176,VALID,1.01055,
2010-01-20, 00:40:05,VALID,1006.54,VALID,0,VALID,90.0055,VALID,0,VALID,24.422,VALID,179,VALID,0.662109,
2010-01-20, 00:41:05,VALID,1006.53,VALID,0,VALID,89.975,VALID,0,VALID,24.4201,VALID,197,VALID,0.534766,
2010-01-20, 00:42:05,VALID,1006.54,VALID,0,VALID,89.8835,VALID,0,VALID,24.4414,VALID,176,VALID,1.01719,
2010-01-20, 00:43:05,VALID,1006.54,VALID,0,VALID,89.7996,VALID,0,VALID,24.4609,VALID,178,VALID,0.678516,
2010-01-20, 00:44:05,VALID,1006.52,VALID,0,VALID,89.647,VALID,0.100563,VALID,24.459,VALID,178,VALID,0.332031,
2010-01-20, 00:45:05,VALID,1006.5,VALID,0,VALID,89.5783,VALID,0.100563,VALID,24.4998,VALID,178,VALID,0.222656,
2010-01-20, 00:46:05,VALID,1006.49,VALID,0,VALID,89.3723,VALID,0.100563,VALID,24.5388,VALID,175,VALID,0.475,
2010-01-20, 00:47:05,VALID,1006.51,VALID,0,VALID,88.9451,VALID,0,VALID,24.5972,VALID,164,VALID,0.623047,
2010-01-20, 00:48:05,VALID,1006.5,VALID,0,VALID,88.2738,VALID,0,VALID,24.6361,VALID,162,VALID,0.497266,
2010-01-20, 00:49:05,VALID,1006.49,VALID,0,VALID,88.0754,VALID,0,VALID,24.714,VALID,162,VALID,0.473047,
2010-01-20, 00:50:05,VALID,1006.5,VALID,0,VALID,87.5567,VALID,0,VALID,24.7724,VALID,162,VALID,0.468359,
2010-01-20, 00:51:05,VALID,1006.45,VALID,0,VALID,87.1752,VALID,0,VALID,24.8113,VALID,162,VALID,0.0992187,
2010-01-20, 00:52:05,VALID,1006.47,VALID,0,VALID,86.9464,VALID,0,VALID,24.8697,VALID,124,VALID,0.25625,
2010-01-20, 00:53:05,VALID,1006.45,VALID,0,VALID,86.6641,VALID,0,VALID,24.9087,VALID,124,VALID,0.297266,
2010-01-20, 00:54:05,VALID,1006.47,VALID,0,VALID,86.42,VALID,0.100563,VALID,24.9671,VALID,124,VALID,0.00117188,
2010-01-20, 00:55:05,VALID,1006.5,VALID,0,VALID,86.1224,VALID,0,VALID,25.0255,VALID,124,VALID,0.257422,
2010-01-20, 00:56:05,VALID,1006.52,VALID,0,VALID,84.4364,VALID,0.100563,VALID,25.045,VALID,204,VALID,1.68398,
2010-01-20, 00:57:05,VALID,1006.49,VALID,0,VALID,81.8197,VALID,0,VALID,25.1034,VALID,197,VALID,1.65586,
2010-01-20, 00:58:05,VALID,1006.49,VALID,0,VALID,81.1713,VALID,0.100563,VALID,25.1813,VALID,266,VALID,0.435547,
2010-01-20, 00:59:05,VALID,1006.48,VALID,0,VALID,80.8356,VALID,0,VALID,25.2027,VALID,205,VALID,0.382031,
2010-01-20, 01:00:05,VALID,1006.5,VALID,0,VALID,80.5076,VALID,0,VALID,25.2007,VALID,185,VALID,0.874609,
2010-01-20, 01:01:05,VALID,1006.5,VALID,0,VALID,80.088,VALID,0,VALID,25.2027,VALID,180,VALID,0.876562,
2010-01-20, 01:02:05,VALID,1006.49,VALID,0,VALID,80.1643,VALID,0,VALID,25.1637,VALID,160,VALID,1.48125,
2010-01-20, 01:03:05,VALID,1006.44,VALID,0,VALID,80.3169,VALID,0,VALID,25.1034,VALID,208,VALID,1.15859,
2010-01-20, 01:04:05,VALID,1006.42,VALID,0,VALID,80.5305,VALID,0,VALID,25.0663,VALID,187,VALID,0.975,
2010-01-20, 01:05:05,VALID,1006.41,VALID,0,VALID,80.8585,VALID,0,VALID,24.9866,VALID,179,VALID,1.35234,
2010-01-20, 01:06:05,VALID,1006.39,VALID,0,VALID,80.5076,VALID,0,VALID,24.93,VALID,166,VALID,1.49375,
2010-01-20, 01:07:05,VALID,1006.33,VALID,0,VALID,80.8051,VALID,0,VALID,24.8716,VALID,182,VALID,1.67773,
2010-01-20, 01:08:05,VALID,1006.34,VALID,0,VALID,81.0797,VALID,0,VALID,24.8327,VALID,182,VALID,0.930078,
2010-01-20, 01:09:05,VALID,1006.33,VALID,0,VALID,81.7587,VALID,0,VALID,24.8132,VALID,165,VALID,0.787109,
2010-01-20, 01:10:05,VALID,1006.28,VALID,0,VALID,81.6595,VALID,0,VALID,24.7956,VALID,143,VALID,0.432031,
2010-01-20, 01:11:05,VALID,1006.29,VALID,0,VALID,81.8274,VALID,0,VALID,24.7335,VALID,156,VALID,0.930078,
2010-01-20, 01:12:05,VALID,1006.27,VALID,0,VALID,81.7816,VALID,0,VALID,24.7353,VALID,133,VALID,0.383203,
2010-01-20, 01:13:05,VALID,1006.27,VALID,0,VALID,82.3156,VALID,0,VALID,24.7159,VALID,105,VALID,0.641016,
2010-01-20, 01:14:05,VALID,1006.24,VALID,0,VALID,82.1402,VALID,0,VALID,24.6556,VALID,117,VALID,0.623438,
2010-01-20, 01:15:05,VALID,1006.23,VALID,0,VALID,82.1478,VALID,0,VALID,24.6166,VALID,183,VALID,1.14219,
2010-01-20, 01:16:05,VALID,1006.22,VALID,0,VALID,82.3309,VALID,0,VALID,24.599,VALID,163,VALID,0.498047,
2010-01-20, 01:17:05,VALID,1006.19,VALID,0,VALID,82.9793,VALID,0,VALID,24.5601,VALID,116,VALID,1.08555,
2010-01-20, 01:18:05,VALID,1006.17,VALID,0,VALID,83.1014,VALID,0,VALID,24.5017,VALID,119,VALID,1.02656,
2010-01-20, 01:19:05,VALID,1006.19,VALID,0,VALID,83.788,VALID,0,VALID,24.4646,VALID,109,VALID,0.617578,
2010-01-20, 01:20:05,VALID,1006.14,VALID,0,VALID,83.7498,VALID,0,VALID,24.3849,VALID,132,VALID,1.41172,
2010-01-20, 01:21:05,VALID,1006.14,VALID,0,VALID,83.5744,VALID,0,VALID,24.3265,VALID,133,VALID,0.817187,
2010-01-20, 01:22:05,VALID,1006.14,VALID,0,VALID,84.055,VALID,0,VALID,24.307,VALID,123,VALID,0.433203,
2010-01-20, 01:23:05,VALID,1006.13,VALID,0,VALID,84.1771,VALID,0,VALID,24.2486,VALID,124,VALID,0.566406,
2010-01-20, 01:24:05,VALID,1006.12,VALID,0,VALID,84.4364,VALID,0,VALID,24.1884,VALID,143,VALID,1.31562,
2010-01-20, 01:25:05,VALID,1006.13,VALID,0,VALID,84.5585,VALID,0,VALID,24.1902,VALID,147,VALID,1.19219,
2010-01-20, 01:26:05,VALID,1006.09,VALID,0,VALID,84.8408,VALID,0,VALID,24.1902,VALID,160,VALID,1.10664,
2010-01-20, 01:27:05,VALID,1006.1,VALID,0,VALID,84.9476,VALID,0,VALID,24.13,VALID,142,VALID,0.874609,
2010-01-20, 01:28:05,VALID,1006.09,VALID,0,VALID,85.2909,VALID,0,VALID,24.1318,VALID,142,VALID,0.836719,
2010-01-20, 01:29:05,VALID,1006.08,VALID,0,VALID,85.5808,VALID,0,VALID,24.0929,VALID,142,VALID,0.892969,
2010-01-20, 01:30:05,VALID,1006.09,VALID,0,VALID,85.8478,VALID,0,VALID,24.0716,VALID,131,VALID,1.01406,
2010-01-20, 01:31:05,VALID,1006.07,VALID,0,VALID,85.9851,VALID,0,VALID,24.0132,VALID,129,VALID,0.867969,
2010-01-20, 01:32:05,VALID,1006.07,VALID,0,VALID,85.9775,VALID,0,VALID,23.9742,VALID,93,VALID,1.03594,
2010-01-20, 01:33:05,VALID,1006.11,VALID,0,VALID,86.0461,VALID,0,VALID,23.9353,VALID,110,VALID,0.73125,
2010-01-20, 01:34:05,VALID,1006.15,VALID,0,VALID,86.4276,VALID,0,VALID,23.8982,VALID,111,VALID,0.30625,
2010-01-20, 01:35:05,VALID,1006.17,VALID,0,VALID,86.7404,VALID,0,VALID,23.8575,VALID,132,VALID,0.448438,
2010-01-20, 01:36:05,VALID,1006.16,VALID,0,VALID,86.6946,VALID,0,VALID,23.8593,VALID,163,VALID,0.810938,
2010-01-20, 01:37:04,VALID,1006.2,VALID,0,VALID,86.7251,VALID,0,VALID,23.7991,VALID,161,VALID,0.784375,
2010-01-20, 01:38:04,VALID,1006.19,VALID,0,VALID,86.8853,VALID,0,VALID,23.7991,VALID,161,VALID,0.371875,
2010-01-20, 01:39:04,VALID,1006.15,VALID,0,VALID,87.1066,VALID,0,VALID,23.7796,VALID,161,VALID,0.382031,
2010-01-20, 01:40:04,VALID,1006.15,VALID,0,VALID,87.3125,VALID,0,VALID,23.7814,VALID,160,VALID,0.428516,
2010-01-20, 01:41:04,VALID,1006.1,VALID,0,VALID,87.1142,VALID,0,VALID,23.7425,VALID,102,VALID,0.617969,
2010-01-20, 01:42:04,VALID,1006.05,VALID,0,VALID,86.8624,VALID,0,VALID,23.7212,VALID,96,VALID,0.862891,
2010-01-20, 01:43:04,VALID,1006.01,VALID,0,VALID,86.9158,VALID,0,VALID,23.7425,VALID,116,VALID,0.742578,
2010-01-20, 01:44:04,VALID,1006,VALID,0,VALID,87.0913,VALID,0,VALID,23.7035,VALID,87,VALID,0.441406,
2010-01-20, 01:45:04,VALID,1005.98,VALID,0,VALID,87.2134,VALID,0,VALID,23.6841,VALID,124,VALID,0.975,
2010-01-20, 01:46:04,VALID,1005.96,VALID,0,VALID,87.0455,VALID,0,VALID,23.6841,VALID,134,VALID,1.08633,
2010-01-20, 01:47:04,VALID,1005.98,VALID,0,VALID,87.0226,VALID,0,VALID,23.6646,VALID,100,VALID,1.00469,
2010-01-20, 01:48:04,VALID,1005.96,VALID,0,VALID,87.0074,VALID,0,VALID,23.6841,VALID,116,VALID,0.371094,
2010-01-20, 01:49:04,VALID,1005.94,VALID,0,VALID,87.0303,VALID,0,VALID,23.6628,VALID,108,VALID,0.563281,
2010-01-20, 01:50:04,VALID,1005.91,VALID,0,VALID,87.1828,VALID,0,VALID,23.6434,VALID,88,VALID,0.615625,
2010-01-20, 01:51:04,VALID,1005.91,VALID,0,VALID,87.2591,VALID,0,VALID,23.6257,VALID,104,VALID,0.698828,
2010-01-20, 01:52:04,VALID,1005.85,VALID,0,VALID,87.427,VALID,0,VALID,23.5655,VALID,117,VALID,0.553906,
2010-01-20, 01:53:04,VALID,1005.83,VALID,0,VALID,87.6482,VALID,0,VALID,23.546,VALID,113,VALID,0.638672,
2010-01-20, 01:54:04,VALID,1005.85,VALID,0,VALID,87.8313,VALID,0,VALID,23.4877,VALID,109,VALID,0.639844,
2010-01-20, 01:55:04,VALID,1005.84,VALID,0,VALID,88.0373,VALID,0,VALID,23.4894,VALID,90,VALID,0.379297,
2010-01-20, 01:56:04,VALID,1005.85,VALID,0,VALID,88.2356,VALID,0,VALID,23.4505,VALID,90,VALID,0.375,
2010-01-20, 01:57:04,VALID,1005.82,VALID,0,VALID,88.4492,VALID,0,VALID,23.4311,VALID,90,VALID,0.265234,
2010-01-20, 01:58:04,VALID,1005.8,VALID,0,VALID,88.5942,VALID,0,VALID,23.4116,VALID,90,VALID,0.383594,
2010-01-20, 01:59:04,VALID,1005.79,VALID,0,VALID,88.7544,VALID,0,VALID,23.3709,VALID,90,VALID,0.306641,
2010-01-20, 02:00:04,VALID,1005.79,VALID,0,VALID,88.9756,VALID,0,VALID,23.3727,VALID,97,VALID,0.394531,
2010-01-20, 02:01:04,VALID,1005.8,VALID,0,VALID,89.235,VALID,0,VALID,23.3727,VALID,130,VALID,0.582812,
2010-01-20, 02:02:04,VALID,1005.81,VALID,0,VALID,89.3876,VALID,0,VALID,23.3727,VALID,132,VALID,0.284375,
2010-01-20, 02:03:04,VALID,1005.82,VALID,0,VALID,89.5173,VALID,0,VALID,23.3302,VALID,132,VALID,0.4125,
2010-01-20, 02:04:04,VALID,1005.83,VALID,0,VALID,89.5936,VALID,0,VALID,23.3709,VALID,132,VALID,0.530469,
2010-01-20, 02:05:04,VALID,1005.81,VALID,0,VALID,89.5936,VALID,0,VALID,23.3904,VALID,132,VALID,0.467578,
2010-01-20, 02:06:04,VALID,1005.82,VALID,0,VALID,89.6775,VALID,0,VALID,23.3921,VALID,132,VALID,0.276172,
2010-01-20, 02:07:04,VALID,1005.8,VALID,0,VALID,89.7233,VALID,0,VALID,23.3904,VALID,132,VALID,0.242188,
2010-01-20, 02:08:04,VALID,1005.78,VALID,0,VALID,89.7461,VALID,0,VALID,23.3921,VALID,127,VALID,0.419922,
2010-01-20, 02:09:04,VALID,1005.77,VALID,0,VALID,89.769,VALID,0,VALID,23.3709,VALID,93,VALID,0.378125,
2010-01-20, 02:10:04,VALID,1005.74,VALID,0,VALID,89.9064,VALID,0,VALID,23.3904,VALID,85,VALID,0.453125,
2010-01-20, 02:11:04,VALID,1005.7,VALID,0,VALID,90.0132,VALID,0,VALID,23.3727,VALID,85,VALID,0.253906,
2010-01-20, 02:12:04,VALID,1005.65,VALID,0,VALID,90.12,VALID,0,VALID,23.3514,VALID,85,VALID,0.234375,
2010-01-20, 02:13:04,VALID,1005.63,VALID,0,VALID,90.242,VALID,0,VALID,23.3727,VALID,85,VALID,0,
2010-01-20, 02:14:04,VALID,1005.62,VALID,0,VALID,90.3183,VALID,0,VALID,23.3532,VALID,85,VALID,0,
2010-01-20, 02:15:04,VALID,1005.59,VALID,0,VALID,90.3717,VALID,0,VALID,23.3727,VALID,85,VALID,0,
2010-01-20, 02:16:04,VALID,1005.59,VALID,0,VALID,90.4099,VALID,0,VALID,23.3514,VALID,85,VALID,0.472656,
2010-01-20, 02:17:04,VALID,1005.6,VALID,0,VALID,90.3565,VALID,0,VALID,23.3514,VALID,147,VALID,0.642578,
2010-01-20, 02:18:04,VALID,1005.58,VALID,0,VALID,90.2954,VALID,0,VALID,23.3921,VALID,128,VALID,0.408203,
2010-01-20, 02:19:04,VALID,1005.58,VALID,0,VALID,90.2115,VALID,0,VALID,23.3904,VALID,128,VALID,0.372656,
2010-01-20, 02:20:04,VALID,1005.54,VALID,0,VALID,90.2039,VALID,0,VALID,23.3904,VALID,128,VALID,0.169531,
2010-01-20, 02:21:04,VALID,1005.56,VALID,0,VALID,90.2497,VALID,0,VALID,23.4098,VALID,128,VALID,0.465625,
2010-01-20, 02:22:04,VALID,1005.53,VALID,0,VALID,90.1963,VALID,0.100563,VALID,23.4098,VALID,128,VALID,0.432031,
2010-01-20, 02:23:04,VALID,1005.56,VALID,0,VALID,90.1123,VALID,0,VALID,23.4098,VALID,127,VALID,0.325781,
2010-01-20, 02:24:04,VALID,1005.51,VALID,0,VALID,90.0742,VALID,0.100563,VALID,23.4311,VALID,127,VALID,0.489453,
2010-01-20, 02:25:04,VALID,1005.49,VALID,0,VALID,90.0513,VALID,0,VALID,23.4098,VALID,110,VALID,0.375781,
2010-01-20, 02:26:04,VALID,1005.48,VALID,0,VALID,90.1429,VALID,0,VALID,23.3904,VALID,108,VALID,0.428516,
2010-01-20, 02:27:04,VALID,1005.45,VALID,0,VALID,90.2344,VALID,0,VALID,23.3709,VALID,105,VALID,0.242969,
2010-01-20, 02:28:04,VALID,1005.41,VALID,0,VALID,90.2802,VALID,0,VALID,23.332,VALID,105,VALID,0.258594,
2010-01-20, 02:29:04,VALID,1005.43,VALID,0,VALID,90.3565,VALID,0,VALID,23.3125,VALID,105,VALID,0.0214844,
2010-01-20, 02:30:04,VALID,1005.37,VALID,0,VALID,90.4327,VALID,0,VALID,23.2736,VALID,105,VALID,0.237891,
2010-01-20, 02:31:04,VALID,1005.35,VALID,0,VALID,90.5319,VALID,0,VALID,23.2754,VALID,105,VALID,0.141406,
2010-01-20, 02:32:04,VALID,1005.37,VALID,0,VALID,90.5853,VALID,0.100563,VALID,23.2347,VALID,105,VALID,0,
2010-01-20, 02:33:04,VALID,1005.34,VALID,0,VALID,90.654,VALID,0.100563,VALID,23.1745,VALID,105,VALID,0.323828,
2010-01-20, 02:34:04,VALID,1005.3,VALID,0,VALID,90.7303,VALID,0,VALID,23.1975,VALID,104,VALID,0.487891,
2010-01-20, 02:35:04,VALID,1005.29,VALID,0,VALID,90.8142,VALID,0,VALID,23.178,VALID,100,VALID,0.580469,
2010-01-20, 02:36:04,VALID,1005.27,VALID,0,VALID,90.9057,VALID,0.100563,VALID,23.1763,VALID,99,VALID,0.469922,
2010-01-20, 02:37:04,VALID,1005.26,VALID,0,VALID,90.9668,VALID,0,VALID,23.1568,VALID,95,VALID,0.673437,
2010-01-20, 02:38:04,VALID,1005.24,VALID,0,VALID,90.9897,VALID,0,VALID,23.1374,VALID,104,VALID,0.769141,
2010-01-20, 02:39:04,VALID,1005.23,VALID,0,VALID,90.9897,VALID,0,VALID,23.1586,VALID,107,VALID,0.971875,
2010-01-20, 02:40:04,VALID,1005.24,VALID,0,VALID,91.0125,VALID,0,VALID,23.1179,VALID,107,VALID,0.264844,
2010-01-20, 02:41:04,VALID,1005.22,VALID,0,VALID,91.0278,VALID,0,VALID,23.1179,VALID,98,VALID,0.376172,
2010-01-20, 02:42:04,VALID,1005.23,VALID,0,VALID,91.0431,VALID,0,VALID,23.1002,VALID,93,VALID,0.635938,
2010-01-20, 02:43:04,VALID,1005.21,VALID,0,VALID,91.0659,VALID,0,VALID,23.0595,VALID,93,VALID,0,
2010-01-20, 02:44:04,VALID,1005.2,VALID,0,VALID,91.0965,VALID,0.100563,VALID,23.0401,VALID,93,VALID,0,
2010-01-20, 02:45:04,VALID,1005.24,VALID,0,VALID,91.1728,VALID,0.100563,VALID,23.0401,VALID,108,VALID,0.4,
2010-01-20, 02:46:04,VALID,1005.26,VALID,0,VALID,91.2567,VALID,0,VALID,23.0206,VALID,107,VALID,0.00585938,
2010-01-20, 02:47:04,VALID,1005.33,VALID,0,VALID,91.3558,VALID,0,VALID,23.0401,VALID,170,VALID,0.651953,
2010-01-20, 02:48:04,VALID,1005.41,VALID,0,VALID,91.455,VALID,0.100563,VALID,23.079,VALID,170,VALID,0.573047,
2010-01-20, 02:49:04,VALID,1005.46,VALID,0,VALID,91.4855,VALID,0,VALID,23.0984,VALID,209,VALID,0.95,
2010-01-20, 02:50:04,VALID,1005.53,VALID,0,VALID,91.4245,VALID,0.100563,VALID,23.0772,VALID,216,VALID,0.492578,
2010-01-20, 02:51:04,VALID,1005.55,VALID,0,VALID,91.3711,VALID,0,VALID,23.0984,VALID,216,VALID,0.425,
2010-01-20, 02:52:04,VALID,1005.58,VALID,0,VALID,91.3711,VALID,0,VALID,23.0984,VALID,216,VALID,0.167969,
2010-01-20, 02:53:04,VALID,1005.6,VALID,0,VALID,91.3406,VALID,0,VALID,23.0984,VALID,216,VALID,0,
2010-01-20, 02:54:04,VALID,1005.6,VALID,0,VALID,91.3406,VALID,0,VALID,23.1002,VALID,216,VALID,0,
2010-01-20, 02:55:04,VALID,1005.63,VALID,0,VALID,91.3635,VALID,0,VALID,23.1002,VALID,216,VALID,0,
2010-01-20, 02:56:04,VALID,1005.63,VALID,0,VALID,91.3406,VALID,0,VALID,23.0401,VALID,216,VALID,0,
2010-01-20, 02:57:04,VALID,1005.65,VALID,0,VALID,91.3711,VALID,0,VALID,23.0807,VALID,216,VALID,0.065625,
2010-01-20, 02:58:04,VALID,1005.67,VALID,0,VALID,91.394,VALID,0,VALID,23.0613,VALID,216,VALID,0,
2010-01-20, 02:59:04,VALID,1005.66,VALID,0,VALID,91.394,VALID,0,VALID,23.0613,VALID,216,VALID,0,
2010-01-20, 03:00:04,VALID,1005.66,VALID,0,VALID,91.4016,VALID,0,VALID,23.0807,VALID,216,VALID,0,
2010-01-20, 03:01:04,VALID,1005.64,VALID,0,VALID,91.4245,VALID,0,VALID,23.1002,VALID,216,VALID,0,
2010-01-20, 03:02:04,VALID,1005.65,VALID,0,VALID,91.3787,VALID,0,VALID,23.1002,VALID,216,VALID,0,
2010-01-20, 03:03:04,VALID,1005.69,VALID,0,VALID,91.3787,VALID,0,VALID,23.0595,VALID,216,VALID,0,
2010-01-20, 03:04:04,VALID,1005.67,VALID,0,VALID,91.4169,VALID,0,VALID,23.0206,VALID,216,VALID,0,
2010-01-20, 03:05:04,VALID,1005.72,VALID,0,VALID,91.4932,VALID,0,VALID,23.0224,VALID,216,VALID,0,
2010-01-20, 03:06:04,VALID,1005.73,VALID,0,VALID,91.5313,VALID,0,VALID,23.0029,VALID,216,VALID,0,
2010-01-20, 03:07:04,VALID,1005.75,VALID,0,VALID,91.5313,VALID,0,VALID,22.9428,VALID,300,VALID,0,
2010-01-20, 03:08:04,VALID,1005.78,VALID,0,VALID,91.5771,VALID,0,VALID,22.9251,VALID,301,VALID,0,
2010-01-20, 03:09:04,VALID,1005.79,VALID,0,VALID,91.6229,VALID,0,VALID,22.9056,VALID,301,VALID,0,
2010-01-20, 03:10:04,VALID,1005.8,VALID,0,VALID,91.6991,VALID,0,VALID,22.8667,VALID,301,VALID,0,
2010-01-20, 03:11:04,VALID,1005.81,VALID,0,VALID,91.8059,VALID,0,VALID,22.8861,VALID,301,VALID,0,
2010-01-20, 03:12:04,VALID,1005.84,VALID,0,VALID,91.8746,VALID,0,VALID,22.8861,VALID,301,VALID,0,
2010-01-20, 03:13:04,VALID,1005.87,VALID,0,VALID,91.9662,VALID,0,VALID,22.9056,VALID,301,VALID,0,
2010-01-20, 03:14:04,VALID,1005.85,VALID,0,VALID,92.0043,VALID,0.100563,VALID,22.8844,VALID,315,VALID,0,
2010-01-20, 03:15:04,VALID,1005.83,VALID,0,VALID,92.0806,VALID,0,VALID,22.9233,VALID,351,VALID,0,
2010-01-20, 03:16:04,VALID,1005.79,VALID,0,VALID,92.1798,VALID,0,VALID,22.9216,VALID,351,VALID,0,
2010-01-20, 03:17:04,VALID,1005.77,VALID,0,VALID,92.2408,VALID,0,VALID,22.9428,VALID,351,VALID,0,
2010-01-20, 03:18:04,VALID,1005.8,VALID,0,VALID,92.2561,VALID,0,VALID,22.9233,VALID,351,VALID,0,
2010-01-20, 03:19:04,VALID,1005.8,VALID,0,VALID,92.2484,VALID,0,VALID,22.9039,VALID,351,VALID,0,
2010-01-20, 03:20:04,VALID,1005.78,VALID,0,VALID,92.2789,VALID,0,VALID,22.9039,VALID,351,VALID,0,
2010-01-20, 03:21:04,VALID,1005.8,VALID,0,VALID,92.3171,VALID,0.100563,VALID,22.9021,VALID,351,VALID,0,
2010-01-20, 03:22:04,VALID,1005.82,VALID,0,VALID,92.3476,VALID,0.100563,VALID,22.9428,VALID,351,VALID,0,
2010-01-20, 03:23:04,VALID,1005.79,VALID,0,VALID,92.4086,VALID,0,VALID,22.964,VALID,351,VALID,0,
2010-01-20, 03:24:04,VALID,1005.81,VALID,0,VALID,92.4315,VALID,0,VALID,22.9428,VALID,351,VALID,0,
2010-01-20, 03:25:04,VALID,1005.82,VALID,0,VALID,92.4315,VALID,0,VALID,22.9216,VALID,351,VALID,0,
2010-01-20, 03:26:04,VALID,1005.79,VALID,0,VALID,92.4391,VALID,0,VALID,22.9428,VALID,351,VALID,0,
2010-01-20, 03:27:04,VALID,1005.82,VALID,0,VALID,92.4544,VALID,0,VALID,22.9233,VALID,351,VALID,0,
2010-01-20, 03:28:04,VALID,1005.79,VALID,0,VALID,92.4697,VALID,0,VALID,22.9039,VALID,351,VALID,0,
2010-01-20, 03:29:04,VALID,1005.8,VALID,0,VALID,92.4925,VALID,0.100563,VALID,22.9039,VALID,354,VALID,0,
2010-01-20, 03:30:04,VALID,1005.79,VALID,0,VALID,92.5002,VALID,0,VALID,22.9039,VALID,354,VALID,0,
2010-01-20, 03:31:04,VALID,1005.8,VALID,0,VALID,92.5231,VALID,0,VALID,22.9056,VALID,354,VALID,0,
2010-01-20, 03:32:04,VALID,1005.79,VALID,0,VALID,92.5536,VALID,0.100563,VALID,22.9056,VALID,354,VALID,0,
2010-01-20, 03:33:04,VALID,1005.77,VALID,0,VALID,92.5917,VALID,0,VALID,22.8632,VALID,354,VALID,0,
2010-01-20, 03:34:04,VALID,1005.78,VALID,0,VALID,92.5993,VALID,0,VALID,22.8438,VALID,354,VALID,0,
2010-01-20, 03:35:04,VALID,1005.79,VALID,0,VALID,92.607,VALID,0,VALID,22.8243,VALID,354,VALID,0,
2010-01-20, 03:36:04,VALID,1005.8,VALID,0,VALID,92.6146,VALID,0,VALID,22.8243,VALID,354,VALID,0,
2010-01-20, 03:37:04,VALID,1005.8,VALID,0,VALID,92.6375,VALID,0.100563,VALID,22.826,VALID,354,VALID,0,
2010-01-20, 03:38:04,VALID,1005.79,VALID,0,VALID,92.6528,VALID,0.100563,VALID,22.8455,VALID,354,VALID,0,
2010-01-20, 03:39:04,VALID,1005.81,VALID,0,VALID,92.6528,VALID,0,VALID,22.8649,VALID,354,VALID,0,
2010-01-20, 03:40:04,VALID,1005.83,VALID,0,VALID,92.6833,VALID,0,VALID,22.8649,VALID,354,VALID,0,
2010-01-20, 03:41:04,VALID,1005.81,VALID,0,VALID,92.6909,VALID,0,VALID,22.8844,VALID,354,VALID,0,
2010-01-20, 03:42:04,VALID,1005.83,VALID,0,VALID,92.729,VALID,0,VALID,22.8844,VALID,354,VALID,0,
2010-01-20, 03:43:04,VALID,1005.82,VALID,0,VALID,92.7214,VALID,0.100563,VALID,22.8649,VALID,354,VALID,0,
2010-01-20, 03:44:04,VALID,1005.77,VALID,0,VALID,92.7138,VALID,0,VALID,22.8472,VALID,354,VALID,0,
2010-01-20, 03:45:04,VALID,1005.77,VALID,0,VALID,92.729,VALID,0,VALID,22.7871,VALID,354,VALID,0.461719,
2010-01-20, 03:46:04,VALID,1005.79,VALID,0,VALID,92.7367,VALID,0,VALID,22.8083,VALID,354,VALID,0.517187,
2010-01-20, 03:47:04,VALID,1005.79,VALID,0,VALID,92.7443,VALID,0,VALID,22.7694,VALID,354,VALID,0.544531,